Theta_e
291 284 280 280 281 282 284 283 283 285 285 286 285 284 283 284 285 287 287 289 290 287 286 285 285 286 286 287 288 288 289 288 287 286 286 287 285 285 285 285 285 285 285 287 287 287 288 288 288 289 289 290 290 290 290 291 292 292 292 294 294 296 299 300 300 300 300 300 299 298 297 296 297 297 297 296 297 297 298 299 299 300 301 302 302 303
291 282 280 282 282 282 282 284 285 285 285 285 285 284 284 285 283 287 286 290 291 286 286 286 285 286 286 287 288 289 288 286 287 286 286 285 287 286 286 286 285 285 287 287 287 287 288 288 288 289 289 290 288 289 290 289 290 292 292 293 294 295 297 298 299 298 298 299 298 296 295 295 295 295 294 294 295 295 296 296 297 298 299 299 300 301
283 280 282 283 284 284 283 284 283 283 283 284 284 285 284 285 286 288 287 289 289 287 285 287 284 285 286 287 288 288 287 287 288 287 286 285 286 286 286 285 285 285 285 286 286 286 287 288 289 289 289 289 289 289 290 290 291 291 292 293 294 294 295 296 298 297 296 296 296 296 295 295 294 295 296 295 294 295 294 295 295 296 296 297 298 299
281 282 283 285 283 283 283 283 283 282 284 285 285 284 282 285 283 281 287 288 289 287 284 286 284 285 287 288 288 288 289 288 288 287 287 288 285 286 285 284 284 285 285 284 285 285 286 287 287 288 288 289 289 289 290 290 290 291 292 292 293 294 294 295 296 297 297 297 296 296 296 296 295 294 295 295 295 294 293 292 293 295 295 295 295 296
280 283 286 283 283 284 281 281 282 285 285 284 284 283 283 282 282 282 283 286 288 289 288 285 284 285 287 285 286 288 290 288 287 286 285 288 288 287 287 286 285 284 285 284 285 285 285 286 286 287 288 289 288 288 289 290 290 291 291 292 293 293 294 294 295 295 296 296 295 295 296 295 294 294 293 293 291 292 292 291 291 292 293 294 294 294
282 284 284 282 282 283 282 281 278 280 284 283 282 282 281 281 281 283 284 284 283 283 283 282 278 280 284 284 285 287 288 287 288 286 286 287 287 286 285 286 285 286 286 285 284 285 286 286 287 287 287 287 287 287 289 290 290 290 291 292 292 292 293 293 294 295 295 294 293 293 292 291 290 289 289 288 288 289 289 289 291 291 292 292 293 294
283 284 283 281 281 283 282 280 280 280 282 282 281 281 283 283 282 282 282 283 280 277 282 282 276 276 283 281 284 285 286 286 288 287 286 287 287 286 286 286 285 285 285 287 286 286 286 286 286 286 287 287 287 288 289 290 290 290 291 291 292 292 292 293 293 294 294 294 293 292 291 291 289 288 289 290 290 290 290 290 290 290 291 292 291 291
284 284 283 281 282 283 283 282 281 280 281 283 283 284 283 282 282 283 281 283 282 282 281 280 281 276 278 282 285 285 285 285 286 287 288 288 288 287 286 285 286 286 285 285 286 286 286 286 286 285 286 287 287 289 289 289 290 290 290 290 291 291 292 292 293 293 293 292 292 292 291 291 289 289 289 290 290 290 290 290 290 290 290 291 291 291
281 284 283 281 282 282 280 280 282 282 281 283 283 286 283 282 283 281 283 283 281 278 279 280 279 276 279 281 284 285 282 283 284 286 287 288 288 288 286 286 285 286 285 285 285 285 286 286 286 286 286 287 288 288 288 289 289 290 290 290 290 290 291 291 292 292 292 293 292 292 291 290 290 290 290 290 290 290 290 290 290 290 290 290 290 291
282 282 282 283 282 280 282 283 283 282 281 284 283 285 283 282 282 283 284 283 281 278 276 277 278 275 277 282 283 284 283 283 284 286 287 288 288 288 287 286 286 286 286 286 285 286 286 286 286 286 287 287 288 288 289 289 290 290 290 290 289 289 290 291 291 292 292 292 292 291 291 291 290 290 289 290 289 289 289 289 289 289 289 289 290 290
282 284 286 283 282 283 282 284 283 282 283 285 284 282 284 283 282 281 282 281 280 275 278 277 279 276 274 280 283 281 281 285 287 286 287 288 289 289 289 288 287 285 286 286 286 286 287 287 287 287 286 287 288 289 289 289 289 289 290 289 289 289 290 290 291 291 291 291 291 291 291 291 290 290 290 289 289 289 289 288 288 288 289 289 289 289
283 284 285 285 286 285 283 282 282 282 282 283 284 283 282 282 280 280 279 277 274 275 278 279 277 278 273 279 285 287 287 287 287 285 285 286 288 289 289 289 288 287 287 287 287 286 286 287 287 287 286 287 287 288 288 288 289 289 289 289 288 288 289 290 290 290 290 291 291 291 291 290 291 290 290 289 288 289 288 288 288 288 288 288 289 289
282 282 282 284 285 282 283 282 283 282 284 284 283 282 278 277 277 275 277 274 275 275 278 278 278 275 277 282 285 287 288 287 288 287 286 286 287 289 289 290 289 289 288 287 287 287 287 287 287 287 287 287 287 287 287 288 288 288 288 288 287 287 289 289 289 289 289 290 290 290 290 290 290 290 290 289 289 289 289 288 288 288 287 288 288 288
282 280 283 283 283 284 284 281 281 281 282 281 280 278 277 274 272 270 273 273 275 278 276 277 277 275 281 283 286 286 288 289 288 288 288 288 288 289 290 290 290 290 288 288 287 287 287 287 287 287 287 287 287 287 287 287 287 288 288 288 287 287 288 289 289 289 289 289 289 290 290 289 290 290 290 289 289 289 289 289 288 288 287 287 287 287
279 280 281 282 280 283 284 282 281 279 281 280 280 279 278 277 273 270 272 271 272 273 276 276 273 275 277 281 284 285 285 286 287 288 289 290 291 291 291 291 291 290 289 289 288 288 288 288 287 287 287 287 288 287 288 287 287 288 287 287 287 287 287 288 288 289 288 288 289 289 290 290 289 289 289 289 290 289 289 289 289 288 288 287 287 287
278 279 282 282 282 283 281 283 282 280 279 280 280 282 280 276 279 274 274 273 271 271 273 275 276 279 281 284 285 285 286 286 287 287 287 288 289 289 288 289 289 289 289 289 288 288 288 288 288 288 288 288 288 288 288 287 288 288 287 287 287 287 287 288 288 288 288 288 288 289 289 289 289 289 289 289 289 289 289 289 289 289 289 289 288 288
280 280 280 282 282 282 282 282 281 282 277 280 281 278 277 280 279 275 271 268 270 270 272 278 278 281 285 283 283 284 284 286 285 286 286 287 289 289 288 289 289 289 290 290 290 289 289 289 288 288 288 288 288 288 288 288 288 287 287 287 287 287 287 288 288 288 288 288 288 288 288 289 289 289 288 288 288 288 289 289 289 288 289 289 289 289
278 280 282 281 280 280 281 281 282 282 281 281 279 279 280 280 279 276 273 272 272 270 274 274 275 277 279 279 284 283 283 285 286 286 286 287 288 288 289 289 290 290 290 291 291 291 291 290 289 289 289 288 288 288 288 288 288 288 288 288 287 287 287 287 288 288 288 288 288 288 288 288 289 288 288 289 288 289 288 288 289 289 289 288 289 289
280 278 281 278 280 281 282 282 282 283 283 281 279 281 277 274 274 276 273 269 269 270 272 275 275 277 279 280 282 282 283 284 285 286 285 286 287 288 289 290 290 290 290 290 290 290 290 290 290 290 289 289 289 289 288 289 289 289 288 288 288 287 287 288 288 288 288 288 289 289 288 288 288 288 288 288 289 289 288 288 288 288 288 289 289 288
280 277 280 279 280 280 281 281 279 280 282 281 282 280 278 279 275 274 274 274 273 270 270 274 274 278 281 282 282 283 283 285 286 286 286 287 288 288 289 290 290 290 290 290 290 291 291 291 291 290 289 289 289 288 289 289 289 288 288 288 288 288 288 288 287 288 288 288 289 288 288 288 289 288 288 289 288 288 288 288 288 288 288 288 288 288
280 280 276 281 279 280 280 281 280 281 279 280 280 279 278 277 276 277 274 273 273 270 270 269 270 279 284 284 283 284 284 285 285 287 288 289 289 290 290 290 291 291 291 291 291 291 292 292 292 291 291 290 290 290 289 289 288 288 289 288 288 287 287 287 288 288 288 288 288 288 288 288 288 288 288 288 288 288 288 288 288 288 288 288 288 288
278 278 276 280 280 282 281 280 280 280 280 280 280 279 280 278 276 273 273 269 269 271 268 269 270 278 285 283 284 284 285 285 286 286 287 288 288 289 289 290 290 290 291 292 292 292 292 292 292 292 291 290 289 289 288 288 288 288 288 288 288 288 288 288 288 288 288 288 289 288 288 288 288 289 289 288 288 288 288 288 288 288 288 287 288 288
280 279 277 275 279 281 279 279 279 279 279 278 279 279 279 278 278 275 270 272 270 271 268 271 268 275 285 283 283 283 283 284 285 285 286 288 288 289 289 289 290 290 290 291 291 291 291 292 292 292 290 289 289 288 288 288 288 288 288 288 288 288 288 288 288 289 288 288 288 288 288 288 288 288 288 288 288 288 288 288 288 288 288 288 288 288
280 277 276 278 282 279 278 279 279 279 279 278 278 278 278 278 278 277 277 276 273 271 271 270 268 276 285 284 283 283 284 284 284 284 286 288 289 289 289 289 289 289 289 290 290 290 291 290 290 290 289 289 288 288 288 288 288 288 288 288 288 288 288 288 289 289 288 288 288 288 288 288 288 288 288 287 288 288 288 288 288 288 288 288 288 288
277 279 276 275 277 278 277 277 277 275 278 279 280 279 279 277 276 275 275 275 272 273 274 273 270 278 283 283 284 283 283 284 285 286 285 286 288 289 289 289 289 289 289 289 289 289 289 289 288 289 289 290 289 289 289 288 288 288 288 288 288 288 288 289 289 288 288 287 287 288 288 288 288 288 287 287 287 288 288 288 288 288 288 288 288 289
279 279 277 274 272 272 274 275 278 278 279 279 279 278 277 277 276 275 273 272 270 273 273 272 274 282 285 284 284 283 283 285 287 286 285 286 286 286 287 288 288 288 288 288 288 288 288 289 289 289 289 289 290 289 289 288 288 288 288 288 288 288 288 288 289 288 288 287 287 287 287 288 288 287 287 287 288 288 288 288 288 288 288 288 288 288
276 274 275 279 278 277 280 282 280 279 278 276 278 277 277 277 279 278 278 273 271 274 271 275 277 280 282 284 285 286 286 285 285 286 286 286 286 286 286 286 287 287 287 287 288 288 288 287 287 288 289 289 289 289 289 289 288 288 288 288 288 288 288 289 288 288 287 287 287 287 287 287 287 288 288 288 288 288 288 288 288 288 288 289 288 288
275 275 276 275 278 280 282 281 279 277 275 277 276 277 278 277 277 275 273 273 278 275 271 277 279 277 279 282 284 284 285 286 286 286 286 286 286 286 286 286 286 286 287 287 287 286 286 287 288 287 288 288 288 289 289 289 289 288 288 287 288 288 287 288 288 287 287 287 286 286 287 288 288 288 288 288 288 288 288 288 288 288 288 288 287 287
276 274 276 275 275 277 278 278 278 277 276 276 276 277 277 278 276 273 274 277 277 274 273 279 278 277 280 282 284 285 286 285 286 286 286 286 285 285 285 285 285 286 286 286 287 287 287 287 287 288 288 288 288 287 287 288 288 288 288 288 288 288 287 287 287 287 287 286 286 287 287 288 288 288 288 288 287 287 287 288 288 288 288 288 287 288
276 274 275 274 273 274 276 277 278 276 276 276 275 276 277 277 276 276 276 277 277 276 278 278 279 279 281 282 284 285 287 286 286 286 285 285 285 286 285 285 285 286 286 286 287 288 288 288 287 288 288 288 287 287 287 287 287 287 287 287 287 287 287 287 286 286 286 286 286 287 288 288 288 288 287 287 286 287 287 287 288 288 287 287 287 287
276 276 276 272 272 274 278 278 274 274 274 273 275 276 276 276 276 277 276 277 277 277 277 277 277 277 282 285 285 286 286 286 285 284 285 286 286 285 285 285 285 286 287 287 287 287 288 287 287 287 287 287 287 287 287 287 287 287 287 287 287 287 287 287 286 286 286 286 287 287 288 287 287 287 287 287 287 287 287 287 287 287 287 287 287 287
276 275 273 271 272 273 273 273 275 276 274 273 273 276 276 275 273 275 274 276 275 274 276 276 274 275 281 285 285 285 284 284 283 285 285 286 287 286 285 285 286 287 287 288 288 288 287 287 287 287 287 288 288 288 287 287 287 287 286 287 286 287 287 287 286 286 286 286 287 287 287 287 287 287 287 287 287 287 287 287 287 286 286 286 286 286
275 275 273 273 271 273 273 272 273 273 273 274 278 281 281 278 278 278 277 278 278 279 276 274 275 281 284 286 283 284 285 285 284 285 285 286 287 286 286 285 286 287 287 288 288 288 288 288 288 288 288 288 288 288 288 288 288 287 287 287 287 287 286 285 285 285 285 286 286 286 287 287 286 286 287 287 287 287 287 286 286 286 286 285 286 286
274 274 274 275 271 273 271 270 272 273 272 278 281 281 281 279 278 277 277 277 278 279 279 282 282 285 285 285 284 283 284 285 286 287 287 286 286 286 286 287 287 287 287 288 288 288 289 289 289 289 289 288 289 289 289 289 288 289 289 289 288 287 286 285 285 284 284 285 286 286 286 286 286 286 286 287 287 287 286 286 285 286 286 286 286 285
274 274 274 273 271 271 271 272 273 268 274 282 282 284 282 282 282 280 280 281 280 280 281 281 281 282 283 284 285 285 286 286 287 285 286 286 287 286 286 286 287 288 288 288 289 289 290 290 290 290 289 289 288 289 288 288 288 288 288 288 287 287 286 285 285 285 285 285 285 286 286 286 286 286 286 286 286 286 285 285 285 285 286 285 285 285
274 274 274 272 272 273 271 272 269 276 281 281 284 281 283 281 281 279 278 280 281 281 280 279 281 283 285 285 285 286 286 286 285 285 286 287 287 287 286 287 288 289 288 289 289 290 290 291 290 290 290 291 290 288 288 288 288 287 287 287 286 286 286 286 285 285 285 285 285 286 286 286 286 286 286 286 286 285 285 285 285 285 285 285 285 285
277 276 275 273 274 270 272 271 273 279 277 281 279 279 281 279 279 279 278 281 282 282 281 281 282 283 285 285 286 285 284 283 282 284 288 288 288 288 288 288 290 290 290 290 290 290 291 291 290 290 290 289 289 288 288 289 288 287 286 286 286 285 285 285 285 285 285 285 285 285 286 285 285 285 285 285 285 284 284 284 284 284 285 284 284 284
279 275 276 273 273 274 271 270 272 273 273 280 280 281 282 282 283 283 281 280 286 285 284 283 283 284 285 285 285 283 282 280 280 284 288 290 290 289 289 289 289 290 289 289 290 289 289 289 289 288 288 287 287 288 288 288 287 286 286 286 286 285 285 285 284 285 285 285 285 286 286 286 285 285 285 284 284 284 284 284 285 285 285 283 283 283
275 277 276 274 274 272 271 268 269 268 275 281 280 281 281 281 281 281 280 278 287 286 286 285 284 285 286 286 285 282 281 280 282 286 290 290 291 291 289 290 290 290 290 289 289 289 289 290 290 289 288 287 286 287 288 287 286 285 285 286 286 286 285 285 285 285 285 285 286 286 286 286 285 285 285 284 284 284 284 284 284 284 283 283 282 282
272 274 274 271 270 272 271 269 269 274 275 280 281 281 282 281 281 282 274 277 285 285 286 285 285 286 287 286 285 283 283 281 283 287 291 291 291 291 290 289 290 290 290 291 290 289 289 289 288 287 286 286 287 288 288 287 286 285 285 285 286 285 285 285 286 287 287 287 287 287 286 286 285 285 285 284 285 285 285 285 284 283 282 282 282 281
271 271 272 270 271 271 272 271 273 275 281 284 283 282 281 281 282 275 271 282 288 287 285 285 286 288 288 286 284 283 285 287 289 290 291 289 287 288 289 289 289 289 288 288 289 289 289 288 287 287 287 288 289 288 287 286 285 285 285 285 285 285 286 287 287 287 287 287 286 286 286 286 285 285 285 285 285 285 284 283 282 281 281 280 280 279
270 271 272 272 270 270 271 270 270 274 281 285 286 283 283 281 274 275 285 287 287 287 286 285 287 288 288 287 287 286 288 290 290 290 288 287 288 288 289 289 289 289 289 289 288 287 287 287 287 287 287 287 287 287 287 286 284 285 285 285 284 285 287 287 287 287 286 286 285 285 285 285 285 285 284 284 284 283 282 281 281 280 279 279 278 277
276 271 271 269 273 273 271 269 269 268 281 284 283 281 283 279 282 288 286 285 286 287 286 285 285 288 287 286 288 288 288 288 288 287 287 288 287 287 288 288 288 288 288 289 289 289 288 287 287 287 287 288 288 287 286 285 284 284 285 284 285 287 287 287 286 286 285 285 284 284 284 284 284 284 283 283 282 281 280 279 279 278 278 277 276 276
281 277 277 273 276 273 270 268 270 280 283 284 284 281 281 284 289 289 287 287 287 285 286 288 288 287 287 287 287 287 287 287 287 287 287 287 287 288 288 288 288 288 287 288 288 287 287 286 287 287 287 287 287 287 286 285 284 284 284 284 286 287 286 285 285 285 284 284 284 284 284 284 283 283 282 281 281 280 279 278 277 277 277 276 275 275
282 281 282 280 281 277 277 278 283 285 283 285 287 289 289 288 288 289 289 288 286 287 289 287 288 289 289 288 287 286 286 286 286 287 286 287 288 288 288 288 288 288 288 288 288 289 287 287 286 287 287 287 287 286 286 285 284 284 283 285 286 286 285 284 284 283 283 283 283 283 283 282 282 281 280 280 279 279 278 277 276 275 275 274 274 274
286 286 287 283 283 286 286 287 289 289 289 286 286 288 287 288 290 288 287 286 288 288 289 287 288 289 289 289 287 286 286 287 287 287 287 287 287 288 288 288 288 288 288 287 287 287 287 287 286 285 285 286 286 286 285 285 284 283 284 286 286 285 285 284 283 282 282 283 282 282 280 279 278 278 278 278 278 278 277 276 275 275 274 274 273 273
284 286 283 281 283 280 277 287 286 286 288 289 290 290 290 289 288 289 288 288 288 289 290 290 289 288 288 288 287 287 287 287 287 287 287 287 287 287 287 287 288 288 288 287 288 288 287 286 286 285 285 285 287 287 286 285 285 284 285 285 285 285 284 283 282 281 282 281 281 279 278 278 277 276 276 276 276 275 274 274 274 273 272 272 272 271
282 287 282 282 282 280 280 285 288 289 290 290 290 289 289 291 291 291 291 291 290 290 290 290 290 288 289 287 287 287 287 287 287 287 287 287 287 288 288 288 288 288 288 288 288 287 286 286 285 285 285 285 286 287 286 286 285 285 285 284 284 283 282 281 281 281 281 280 279 278 277 278 273 274 275 274 274 273 273 272 272 272 271 271 271 271
284 283 279 282 280 283 285 286 286 287 287 288 289 290 290 291 291 290 290 290 289 288 288 289 289 288 288 288 289 288 287 287 287 287 287 287 287 288 288 288 288 288 288 287 287 286 286 286 285 285 285 286 287 286 286 285 286 285 284 284 283 281 280 280 279 279 279 278 277 277 276 276 274 275 274 273 272 272 272 272 271 271 271 272 271 270
285 281 284 283 279 279 280 283 287 283 283 287 288 289 290 292 291 290 291 290 290 289 289 289 289 290 289 289 288 288 287 287 288 288 287 287 288 288 288 288 288 288 287 287 287 286 285 284 284 284 284 285 286 285 285 285 285 284 283 282 280 279 279 278 277 276 276 276 276 275 274 274 273 272 272 272 272 270 269 268 269 270 270 269 270 270
283 284 284 281 281 281 286 288 289 289 288 289 290 292 291 291 290 290 289 290 290 291 290 290 289 289 290 290 289 287 286 287 287 288 287 287 288 288 288 288 287 287 287 287 286 285 284 284 284 283 283 283 284 283 282 282 283 283 280 278 278 278 278 277 277 276 275 274 275 273 274 273 272 271 271 270 270 269 268 268 268 270 271 271 270 271
Wind_Speed
6 12 10 8 6 8 7 6 2 2 3 2 2 4 4 6 4 2 3 6 5 8 3 4 4 4 3 3 3 3 3 3 4 6 8 6 6 6 6 6 7 8 9 9 9 10 11 11 10 10 9 10 11 11 12 12 12 12 11 11 12 11 11 9 9 9 8 8 8 8 10 10 9 8 8 9 9 9 9 10 11 12 10 9 11 13
2 12 8 6 4 4 4 2 1 1 1 2 3 4 5 5 6 5 4 7 5 6 8 5 8 7 4 2 2 2 2 2 4 5 7 10 7 5 6 7 7 7 5 8 9 10 10 10 12 10 9 11 11 11 12 12 12 12 12 12 11 10 11 11 11 9 9 8 8 8 8 8 8 8 8 9 8 8 8 10 11 11 11 12 12 11
11 9 6 5 3 2 0 2 1 1 1 1 3 4 5 4 9 7 4 5 3 6 8 10 10 8 4 2 1 2 2 2 4 4 5 8 8 6 6 6 7 7 8 8 9 10 9 10 10 9 9 9 9 10 12 11 12 12 12 12 11 11 10 11 10 9 10 9 9 8 7 7 8 8 8 9 9 9 10 11 12 13 14 13 12 11
7 8 6 3 2 4 4 3 3 3 2 2 2 2 4 5 7 4 2 6 8 7 9 11 13 8 4 4 3 1 2 0 2 3 5 6 8 8 7 7 7 7 8 8 9 9 9 10 9 9 10 9 9 10 11 12 12 10 11 12 12 11 11 10 10 9 8 8 8 8 8 7 7 7 7 9 9 11 12 13 12 11 11 11 11 11
7 3 3 3 2 5 4 5 4 2 1 2 1 1 3 5 3 3 7 10 12 7 5 11 11 5 4 6 4 4 3 2 2 4 6 7 5 6 6 5 6 7 7 7 8 8 9 9 10 10 9 9 10 11 11 11 10 8 11 11 11 10 11 10 10 9 7 5 5 4 5 5 6 7 8 8 10 11 11 11 12 12 11 11 11 11
6 2 1 2 0 1 3 3 5 3 0 1 2 1 3 3 7 7 7 9 6 1 5 10 8 1 3 6 5 2 4 3 4 1 6 6 6 5 4 5 5 4 4 5 6 7 7 8 8 9 10 10 9 10 10 9 10 10 10 11 10 9 10 11 11 10 8 8 8 6 6 7 7 9 9 10 10 9 10 11 9 11 11 11 11 11
3 1 2 2 1 2 5 4 0 3 1 2 1 2 3 4 4 4 6 5 5 6 4 3 4 7 1 4 5 4 4 4 5 4 4 4 3 5 4 4 4 5 5 4 5 6 7 8 8 8 9 9 9 9 8 8 9 10 9 10 10 9 9 10 11 11 8 9 9 10 10 9 9 9 9 8 8 8 8 8 9 10 11 11 11 11
0 0 1 1 2 3 2 5 2 3 3 1 3 0 2 3 3 3 2 1 5 2 5 1 2 6 7 1 4 5 5 5 6 6 5 5 4 4 4 4 5 5 5 5 5 5 6 6 7 8 8 8 8 7 7 8 8 9 10 9 10 8 9 9 9 10 9 8 8 9 10 9 10 10 9 8 8 8 8 9 9 9 9 11 11 11
3 4 7 7 3 2 3 2 2 2 2 2 1 1 4 4 4 3 3 3 2 4 2 2 1 4 4 2 3 4 6 7 8 7 7 7 4 4 4 4 3 3 3 4 4 5 6 6 7 7 7 7 7 7 7 7 7 7 8 9 9 9 9 9 10 9 10 9 9 8 8 9 8 8 8 7 7 8 8 9 8 9 9 10 11 11
1 3 2 3 5 3 5 4 3 3 2 2 3 1 2 2 2 3 3 5 2 3 2 2 3 3 7 1 3 4 6 9 9 9 8 7 7 6 6 5 4 3 2 2 4 4 5 5 5 5 5 6 6 6 6 6 6 7 7 9 9 10 8 8 9 9 10 9 8 9 9 9 8 7 7 7 7 7 7 9 9 9 8 8 8 10
1 1 2 2 5 5 5 5 2 5 7 7 6 7 6 5 2 0 1 2 4 2 1 3 1 3 5 0 1 4 3 7 5 6 6 7 7 8 8 6 4 3 2 1 2 3 3 3 3 4 4 5 5 5 6 6 6 6 6 7 9 9 7 8 8 9 9 9 8 8 8 9 9 8 7 7 8 7 8 8 8 8 7 7 8 8
1 1 1 2 1 3 1 3 3 3 4 3 4 5 7 5 2 2 1 1 2 2 5 2 2 2 4 2 2 5 1 4 7 9 10 10 10 9 7 6 6 5 3 3 2 1 2 2 1 2 3 4 4 5 5 5 5 5 6 6 8 8 8 7 8 9 8 7 8 8 8 8 8 7 6 7 7 7 8 7 7 6 6 7 7 8
2 3 3 2 3 3 3 5 4 2 4 3 4 4 4 3 2 1 1 2 1 4 3 3 4 3 8 8 5 2 6 5 7 7 9 10 9 8 8 8 6 5 5 4 4 3 2 2 1 1 2 2 3 3 4 4 4 4 5 6 7 7 7 7 7 8 8 7 7 7 7 7 7 7 7 7 7 6 6 6 6 6 6 6 7 7
2 3 3 0 1 2 5 6 5 1 5 8 5 5 5 6 3 3 3 3 3 2 3 1 1 4 5 4 2 5 4 4 5 5 5 7 8 8 7 7 7 6 7 6 5 5 4 3 2 2 2 2 2 2 2 2 2 2 3 4 5 5 5 5 6 6 6 7 6 6 6 6 5 6 6 6 6 6 5 5 6 6 6 6 7 7
4 0 3 4 2 4 4 5 2 3 5 4 2 3 3 2 3 5 3 6 7 7 7 1 2 1 6 3 1 1 3 2 2 1 2 1 2 5 6 7 7 8 8 7 7 7 6 5 4 3 3 2 2 2 2 1 1 1 1 2 3 4 4 4 4 4 5 5 5 5 5 4 4 5 5 5 5 5 5 5 5 5 5 6 5 5
1 6 3 1 2 3 2 1 1 2 3 1 1 4 2 2 3 4 3 3 5 6 7 2 2 2 4 4 2 1 0 1 2 3 3 5 4 3 4 6 8 9 9 8 8 9 9 8 7 5 5 4 4 3 2 2 1 1 0 0 1 2 2 2 3 3 3 3 3 4 5 4 4 4 4 4 4 4 4 4 5 5 5 4 4 4
2 1 1 1 2 3 3 2 0 4 3 1 2 2 1 2 2 1 3 2 3 3 6 2 7 3 6 2 3 2 2 4 3 5 6 7 6 5 7 8 9 9 9 8 9 9 9 9 8 7 7 5 5 5 4 4 3 3 2 2 2 2 2 2 2 2 3 3 3 3 3 3 3 4 4 4 4 4 3 3 4 4 4 4 4 3
1 8 3 1 3 2 2 2 3 3 1 3 1 3 3 1 1 1 5 1 2 3 3 1 4 9 5 1 2 3 6 7 7 7 7 7 6 8 9 9 9 9 9 9 9 9 9 9 10 9 8 8 7 7 6 6 5 4 4 3 3 3 3 3 2 3 3 3 3 3 3 2 2 2 2 3 3 2 3 3 3 3 3 3 3 2
2 4 2 1 1 2 1 2 2 2 2 3 3 3 3 1 1 1 1 3 4 4 6 4 6 8 6 2 1 2 5 6 9 8 6 9 9 11 10 11 10 9 8 8 9 8 8 8 9 9 10 10 9 9 8 7 6 5 5 6 5 6 5 3 3 3 3 3 2 2 3 3 3 2 2 1 1 1 2 2 2 2 2 2 1 2
2 2 1 3 1 2 0 1 2 2 3 3 2 1 1 2 0 3 1 2 1 6 4 4 3 7 5 2 2 2 1 1 4 7 11 12 12 10 10 10 9 9 9 9 9 9 9 10 10 11 11 11 10 10 9 8 6 8 7 7 7 6 6 5 6 5 5 5 4 4 4 4 3 3 3 3 2 2 2 1 1 1 1 1 0 1
1 0 4 2 3 2 1 0 1 1 2 2 2 1 2 1 1 0 1 2 2 3 2 4 10 5 1 2 3 5 2 2 2 4 6 7 8 9 8 8 7 8 8 8 9 9 10 10 10 10 10 10 9 8 8 8 9 9 7 8 8 8 8 8 7 6 5 4 5 5 6 5 5 5 4 4 3 3 3 3 3 2 1 1 1 1
1 2 4 7 5 2 2 3 1 2 1 3 3 2 1 2 2 3 3 3 1 2 1 2 10 12 7 3 3 5 2 2 2 4 5 4 5 6 7 8 8 8 8 8 8 8 7 8 8 8 7 7 7 8 10 9 8 9 9 8 8 8 8 8 7 7 7 6 5 6 5 6 5 5 4 5 5 5 5 4 4 4 4 4 3 3
2 1 2 6 4 8 2 2 0 2 1 1 3 1 1 1 1 1 5 0 1 2 2 0 3 8 2 0 1 3 3 3 3 4 5 5 5 6 6 7 8 9 10 10 9 8 8 7 7 7 8 9 11 11 11 10 9 10 11 10 9 9 10 9 9 7 7 7 7 8 7 6 5 5 6 6 5 6 6 6 5 5 5 5 4 4
1 1 3 5 5 1 3 3 3 2 1 2 2 1 2 2 3 4 4 2 4 2 2 2 5 8 1 2 0 2 2 3 3 4 6 6 5 5 6 6 7 7 9 10 9 8 8 7 6 6 8 9 9 10 11 11 11 10 10 10 9 11 12 10 9 8 7 7 8 8 7 7 7 6 7 7 6 7 7 6 6 5 6 5 4 4
2 1 1 7 5 1 1 2 1 1 1 2 2 5 5 3 3 2 4 1 3 8 7 3 9 4 2 2 3 2 2 3 3 4 5 6 6 6 6 6 5 6 7 8 9 9 9 8 10 10 9 9 9 9 9 10 11 11 12 10 10 11 11 10 8 8 8 9 10 9 8 9 8 8 8 9 8 8 8 7 6 6 6 5 5 5
3 1 1 4 7 9 9 8 6 3 2 2 2 3 6 8 7 2 3 3 5 1 9 6 10 12 3 5 4 5 4 6 7 3 4 6 7 9 9 9 8 7 7 8 8 8 9 10 8 9 10 9 9 9 9 10 10 11 11 12 11 10 10 10 8 8 9 9 10 9 10 9 9 9 10 10 9 9 8 7 7 6 5 5 5 4
1 1 3 4 6 9 9 9 5 2 4 6 5 9 8 9 9 9 5 5 11 4 7 15 13 17 21 19 15 13 7 8 12 11 10 9 8 7 8 9 9 9 9 10 9 8 7 8 10 11 10 9 10 9 9 10 10 10 11 12 12 11 10 10 9 9 9 10 10 10 10 10 10 10 10 9 9 8 7 7 7 6 6 5 5 5
1 3 7 8 12 15 15 15 3 1 12 13 13 14 10 11 11 11 10 11 4 2 15 12 15 16 21 18 15 14 13 11 8 9 11 10 9 8 8 9 11 10 10 8 8 9 10 10 9 9 10 10 10 9 9 9 10 10 10 12 11 11 10 7 9 10 10 10 10 11 11 11 11 10 10 9 8 8 8 7 7 7 6 5 6 6
1 3 1 4 9 12 13 14 12 11 12 14 14 14 13 12 13 15 18 19 9 9 17 3 2 8 16 16 17 17 16 13 12 13 11 11 11 10 8 9 9 9 9 9 9 9 9 9 9 9 9 9 9 10 11 10 10 10 10 11 11 9 11 10 10 11 10 10 11 11 11 10 9 8 8 8 8 8 8 8 7 7 6 6 6 6
1 5 2 2 10 11 13 13 11 11 12 13 16 16 14 14 17 19 21 18 19 20 21 21 22 23 21 21 21 20 15 10 11 12 10 9 9 8 7 8 9 9 9 9 10 10 8 9 9 9 9 9 10 10 10 9 10 11 11 12 10 10 11 9 11 12 11 12 12 11 10 10 8 8 9 8 9 9 9 8 8 7 7 7 7 7
1 2 5 1 3 11 11 6 3 7 9 16 19 17 17 16 17 18 16 18 18 20 24 26 25 23 22 19 17 16 11 9 9 10 10 10 8 7 7 9 9 9 9 8 8 9 9 9 8 8 8 9 9 10 10 10 10 9 10 10 9 11 11 10 11 11 11 13 12 11 10 9 9 9 10 10 9 9 9 9 7 7 8 8 8 8
2 2 4 1 5 8 1 3 6 9 11 15 21 21 14 15 12 13 13 14 15 18 16 12 12 15 18 13 6 9 9 8 9 9 8 8 8 6 7 9 10 10 10 10 8 7 8 8 8 8 9 9 9 9 9 9 9 8 9 9 10 10 9 10 11 11 12 12 11 10 11 10 10 10 11 10 10 10 9 8 8 8 8 8 9 8
4 2 0 1 6 10 2 3 7 12 14 14 9 8 7 13 12 7 10 9 15 15 9 8 12 14 13 3 8 12 8 8 8 8 7 9 9 7 8 8 9 10 10 9 9 8 8 8 8 9 9 8 8 8 10 8 7 9 9 9 9 6 8 10 10 11 12 12 11 10 10 10 11 11 11 11 10 9 8 8 8 9 9 10 10 7
1 3 1 1 4 5 3 7 5 7 8 4 4 3 2 7 12 10 9 12 14 13 12 10 11 10 10 11 10 13 14 13 7 7 6 9 10 10 10 8 8 9 9 9 9 9 9 7 6 7 8 9 10 9 8 6 8 9 7 7 6 8 8 9 10 11 12 11 10 10 10 11 11 12 12 11 9 8 8 9 9 10 9 8 7 8
5 4 3 1 3 6 5 10 5 3 9 3 4 5 8 8 10 13 16 11 10 16 17 15 17 17 17 13 12 13 14 15 10 9 13 12 10 9 11 11 9 7 8 8 9 9 8 8 8 7 7 8 8 6 5 7 8 8 7 7 8 8 8 9 10 10 10 9 9 10 10 11 11 12 12 11 9 9 9 10 9 9 9 8 8 8
5 5 2 2 2 3 2 1 5 6 3 16 14 1 3 3 5 5 12 13 13 15 17 17 18 17 15 12 11 11 11 10 8 10 12 14 10 9 10 9 10 8 8 8 8 9 9 8 8 8 9 6 4 5 5 6 5 6 8 5 7 7 8 9 10 10 8 9 10 11 12 11 11 11 10 10 9 9 10 10 10 10 8 7 7 7
5 3 3 4 4 5 1 4 12 15 20 10 1 3 5 3 5 1 4 6 9 12 15 15 16 14 13 11 11 7 1 3 7 9 10 9 9 9 10 11 10 10 9 9 9 10 10 9 8 9 7 7 7 7 7 6 5 5 6 6 7 7 8 8 9 10 10 11 12 11 11 11 11 10 10 9 9 9 10 10 10 9 7 7 7 7
7 8 4 3 3 4 6 9 8 6 9 0 2 3 1 2 4 5 3 14 8 13 13 15 14 13 12 9 6 1 3 3 7 7 7 7 7 9 8 9 10 9 9 9 8 8 9 9 8 8 6 9 9 8 8 6 4 6 7 8 7 7 9 9 10 10 10 11 11 11 11 10 9 9 9 8 10 10 9 8 7 7 6 6 6 7
2 2 0 6 5 0 3 4 4 5 9 4 3 4 2 1 2 3 4 11 5 5 13 14 13 11 9 7 3 5 2 6 10 10 3 6 8 7 7 7 8 8 8 7 8 9 9 8 7 8 6 7 9 10 6 4 5 6 8 8 8 8 9 9 10 10 11 11 10 9 8 7 8 9 9 9 10 9 9 9 7 5 4 5 5 5
3 4 4 7 9 9 5 4 8 6 11 4 6 6 4 3 2 5 9 4 3 4 6 9 10 9 8 7 4 5 6 11 12 10 3 4 5 5 6 8 9 9 9 8 7 8 9 9 7 8 9 9 10 9 6 3 5 7 8 9 7 8 9 10 10 11 10 9 8 7 7 6 7 8 9 10 10 8 8 6 4 5 5 4 3 3
5 5 10 12 8 10 10 9 7 10 13 18 9 8 6 3 2 2 7 5 5 4 6 8 9 8 6 5 6 6 8 11 14 15 11 2 4 7 8 8 9 9 10 11 10 9 6 7 7 10 11 9 9 7 4 4 6 8 8 9 8 10 10 10 9 8 8 7 7 7 7 7 8 9 9 9 8 7 4 4 4 4 4 3 3 2
4 4 4 4 9 10 8 8 10 11 17 12 8 15 8 3 3 10 3 1 6 5 4 7 8 7 6 8 6 8 11 10 10 9 8 8 9 10 10 11 11 11 10 10 11 10 8 8 8 10 11 10 9 7 5 5 7 9 9 8 11 11 10 9 8 7 7 7 8 8 8 8 8 8 7 5 5 4 3 3 3 3 3 2 2 3
5 6 5 7 4 3 5 5 7 11 2 7 16 8 5 6 8 1 2 1 1 2 6 7 6 7 6 8 10 11 11 10 10 11 10 10 10 11 12 11 11 12 12 11 10 9 8 8 9 10 11 9 7 6 5 6 9 9 9 11 12 9 8 7 6 7 7 8 8 8 8 8 6 5 4 3 3 4 4 4 4 4 3 3 3 3
8 4 4 5 7 4 7 7 10 7 5 13 15 6 11 17 9 3 3 9 5 4 8 8 6 8 9 10 11 11 10 10 10 11 11 10 11 12 11 11 11 11 11 11 11 11 9 9 9 11 10 8 6 6 6 7 9 9 10 13 10 8 7 7 7 7 7 5 7 7 5 3 2 3 2 3 4 4 5 5 4 4 3 3 3 3
15 10 7 8 6 9 8 10 12 2 8 12 11 10 8 13 11 8 10 11 11 13 12 9 11 10 9 9 10 11 11 11 13 12 12 12 12 12 12 12 11 11 11 12 12 11 8 9 12 11 11 9 7 6 6 7 9 10 12 12 8 7 7 7 4 4 5 5 4 4 2 1 1 3 3 4 5 5 5 5 4 4 3 3 3 3
5 14 3 3 13 10 13 20 18 15 16 12 12 13 10 14 13 9 11 13 12 12 11 11 13 12 11 11 12 9 12 11 12 11 12 12 12 12 11 11 11 11 12 11 11 11 11 8 9 9 11 12 8 7 7 7 8 10 13 10 7 6 6 4 5 6 6 4 3 2 3 4 3 4 4 5 4 3 3 4 4 3 2 2 3 3
12 9 8 12 1 5 12 14 18 24 21 17 18 17 16 16 16 14 13 13 13 16 15 13 13 12 12 11 12 14 15 14 14 14 11 13 11 11 12 13 12 12 12 12 12 10 8 6 8 8 8 12 9 6 6 6 7 10 11 9 7 3 4 5 6 7 6 5 3 3 4 6 5 5 4 4 3 3 3 3 2 2 2 2 2 3
7 11 13 17 12 11 19 18 13 16 12 9 9 12 14 14 15 15 13 14 15 15 15 14 11 11 9 11 12 13 15 13 14 13 11 11 10 12 11 11 12 11 11 10 10 8 7 8 7 10 10 11 10 7 6 5 7 8 7 6 5 4 5 7 8 6 5 5 4 4 5 5 7 6 4 4 3 3 3 2 2 2 3 3 3 3
2 6 8 4 8 13 18 24 28 23 15 19 21 17 15 13 13 16 16 16 14 15 13 12 10 12 11 13 12 12 14 14 13 14 13 12 11 11 10 10 11 11 13 11 10 8 9 8 9 10 11 12 9 8 7 8 5 4 6 5 4 5 7 6 7 5 4 4 4 4 4 4 5 4 4 4 3 2 2 2 2 3 3 4 3 3
9 17 14 2 14 14 14 19 14 6 7 6 12 15 16 17 16 18 16 13 13 13 14 13 13 12 12 11 12 11 14 13 13 13 14 12 11 12 12 12 12 14 13 12 9 8 9 10 11 12 12 11 7 7 8 7 6 4 3 3 4 6 8 6 4 5 4 4 4 4 4 4 4 3 3 3 3 2 1 2 4 4 3 3 6 9
16 21 5 11 14 15 16 18 12 12 13 10 10 11 11 11 12 16 16 18 19 16 16 17 16 17 16 14 10 11 13 13 15 13 14 12 12 12 11 11 11 11 12 10 8 9 10 11 10 10 11 11 8 8 8 8 8 5 3 4 6 8 8 7 5 4 3 4 3 5 4 4 3 3 3 2 2 1 1 2 3 8 10 10 9 10
Wind_Direction
297 59 34 32 13 3 5 18 343 333 331 270 244 310 339 325 323 345 312 354 347 310 327 320 304 287 304 336 351 353 333 353 22 355 342 353 344 352 3 11 8 14 11 1 1 3 6 5 5 9 14 13 15 14 12 14 12 15 19 19 25 23 26 32 34 37 37 42 54 53 53 59 55 50 50 51 44 44 40 36 39 44 38 26 37 42
251 61 32 21 353 333 335 328 119 160 215 286 307 314 328 324 332 348 307 328 330 324 334 322 300 282 263 269 340 325 302 338 356 359 351 336 339 352 5 8 12 9 11 8 10 10 8 7 7 10 16 15 16 15 16 20 19 17 19 26 26 25 31 37 41 45 49 48 53 61 57 59 56 54 49 49 47 46 44 43 40 38 36 37 37 31
51 52 19 358 339 227 154 124 172 169 139 208 313 317 295 358 319 272 276 345 354 304 321 332 305 298 254 240 223 314 326 359 3 9 1 327 332 343 0 6 5 7 9 11 15 13 13 14 13 16 15 17 18 16 20 18 22 22 23 25 29 31 34 36 40 46 51 52 52 61 66 66 72 64 62 63 60 54 50 48 48 45 44 39 41 32
62 40 352 342 262 179 85 48 172 176 150 30 343 326 344 346 350 347 68 355 323 307 308 322 300 291 249 229 231 212 335 55 357 9 7 338 327 336 353 4 356 6 5 9 12 9 14 14 15 17 17 16 18 18 19 19 21 23 25 26 29 32 36 38 37 47 58 62 64 63 64 61 62 67 68 65 56 50 45 43 41 43 42 42 45 42
84 12 355 296 290 220 94 48 38 35 62 108 79 330 308 325 315 270 308 321 302 275 302 320 294 265 217 233 229 191 161 150 65 9 351 326 339 340 329 354 7 5 0 3 5 11 13 14 16 17 15 16 20 19 16 19 22 21 25 27 29 33 36 39 38 43 45 52 63 61 67 72 69 61 55 53 48 46 48 48 40 38 39 41 43 44
73 28 280 287 232 150 195 51 31 340 328 62 131 330 273 280 278 289 306 321 313 339 85 356 330 6 171 225 253 174 183 205 140 137 263 308 338 322 330 359 354 352 9 3 8 9 11 15 17 20 18 19 21 18 13 15 23 25 27 28 31 36 35 35 33 37 44 48 47 45 47 51 49 50 40 39 39 41 45 48 46 42 39 42 44 45
49 83 16 10 3 60 77 86 61 306 332 283 113 186 264 266 255 288 316 315 328 333 13 15 334 315 159 221 213 212 214 212 170 211 240 263 292 307 337 347 343 351 356 357 10 11 14 17 17 22 21 20 22 19 12 15 23 29 30 32 33 35 35 31 33 32 42 50 53 54 58 59 59 64 56 53 51 55 54 53 49 48 42 40 44 43
275 218 323 147 15 6 12 34 63 354 299 338 95 266 250 243 238 284 265 298 295 290 260 40 349 296 308 136 185 198 226 233 217 216 223 231 259 306 316 331 327 346 353 351 354 6 9 13 15 17 16 20 19 11 14 19 19 26 29 34 37 41 39 36 35 39 39 50 52 58 59 60 62 61 62 54 56 56 56 56 53 52 48 44 43 45
41 357 13 9 351 9 34 314 353 269 281 349 113 307 268 252 255 190 223 290 305 314 328 131 164 263 267 118 154 187 229 236 239 227 219 224 234 237 267 282 304 321 339 348 349 358 5 5 12 9 9 13 19 14 16 15 14 20 29 36 42 45 43 37 38 44 45 49 53 57 61 65 61 62 61 61 58 57 53 57 54 53 50 50 46 43
65 31 6 329 347 10 321 317 297 198 272 45 336 256 191 169 185 215 263 287 268 289 310 45 335 330 306 123 185 194 248 250 230 218 216 216 216 221 228 237 244 265 295 338 349 351 353 1 4 1 356 18 18 13 16 19 18 20 29 37 41 43 43 39 42 46 49 50 53 60 61 67 66 66 66 60 55 53 51 55 52 50 49 45 45 45
76 85 339 304 16 334 303 310 228 228 262 309 284 263 230 204 206 191 330 289 276 240 139 94 62 6 309 284 209 180 227 228 207 194 198 207 217 219 222 222 227 219 242 279 308 333 349 359 355 358 11 16 21 18 21 20 19 20 29 38 45 41 42 38 41 44 51 53 54 61 64 69 71 66 69 69 61 56 55 57 51 52 50 46 47 46
134 153 185 50 343 304 261 271 176 244 279 292 284 291 284 205 197 235 219 264 277 351 123 124 60 267 275 359 161 218 148 224 201 191 195 205 212 213 209 218 217 220 223 224 254 282 318 325 1 358 15 18 20 22 24 22 18 20 28 40 50 44 42 40 40 43 46 51 56 61 64 66 64 66 68 70 69 61 61 58 59 56 57 51 47 46
143 82 332 304 129 351 335 275 182 219 246 258 265 289 319 329 299 289 169 323 36 336 124 137 350 247 223 252 296 188 209 210 207 193 197 201 203 204 210 209 213 220 221 231 232 239 252 262 303 333 354 357 20 19 18 23 20 24 28 35 50 45 37 44 46 51 49 50 49 53 60 66 65 66 67 70 70 66 66 62 62 58 58 53 50 43
123 40 349 204 251 23 314 353 360 333 13 357 3 331 344 349 18 344 330 229 271 184 107 193 59 252 290 276 300 235 199 202 202 190 187 192 201 204 206 209 212 212 217 224 228 233 239 245 252 278 291 325 336 358 11 22 31 36 42 44 56 52 40 44 49 54 63 57 53 50 56 60 67 69 69 71 71 67 67 66 65 63 62 62 56 50
349 323 103 333 18 341 25 39 15 296 321 20 269 333 17 4 356 331 353 340 326 310 302 98 254 278 332 54 137 43 351 356 344 337 18 331 223 203 205 205 210 216 220 219 223 224 227 230 233 239 242 262 283 289 304 315 12 359 47 71 80 87 67 61 58 60 62 66 62 62 61 66 73 74 76 74 73 77 81 80 76 71 70 72 65 59
158 262 62 346 298 307 41 48 276 297 213 181 310 254 308 41 326 296 355 291 324 336 306 164 279 313 276 84 140 109 87 176 188 224 224 236 219 205 210 209 213 218 220 216 221 225 226 227 224 225 234 239 242 255 261 254 249 258 262 83 116 106 106 106 100 90 84 82 79 72 76 74 74 84 90 91 83 79 82 88 89 86 83 80 81 74
301 259 100 128 57 68 30 280 100 290 339 21 248 31 14 317 271 331 145 119 254 212 236 317 290 239 249 219 262 220 211 210 161 208 212 221 212 207 224 218 216 218 218 216 219 223 224 221 221 225 226 224 226 231 234 236 229 235 241 245 220 181 184 170 155 137 127 124 115 96 85 84 86 81 85 91 90 87 81 83 86 86 83 88 83 81
341 299 64 233 166 115 292 268 77 18 306 280 314 86 115 77 7 340 325 284 274 300 293 70 305 309 324 68 126 156 209 210 202 205 212 213 204 218 224 222 220 218 220 224 226 228 227 223 222 221 221 223 222 222 225 226 220 222 226 232 244 238 215 196 193 184 176 163 153 142 138 115 96 96 92 97 101 97 97 95 97 102 93 81 80 75
315 292 148 353 330 72 139 226 169 110 303 350 46 135 279 21 271 123 246 335 334 306 308 287 302 263 252 304 170 140 183 212 212 201 205 221 219 226 226 226 225 223 225 226 229 231 230 226 226 223 221 218 222 223 227 227 218 222 225 225 230 232 224 219 228 223 208 207 190 190 169 166 163 160 153 134 113 111 110 94 91 92 102 108 104 89
236 298 286 147 243 7 312 257 301 125 84 40 157 154 31 252 287 318 24 278 257 288 325 291 14 304 184 316 263 306 306 142 193 194 219 224 224 222 225 225 222 218 219 223 225 226 226 226 225 223 223 220 217 219 222 225 224 227 229 227 228 233 235 235 230 226 221 207 203 199 192 187 189 183 183 185 192 188 167 173 158 158 150 126 96 95
161 27 292 126 227 237 241 191 305 354 305 188 222 186 144 87 6 257 203 244 289 297 295 314 314 295 80 157 243 262 47 37 224 225 226 238 237 237 241 238 234 229 223 218 221 224 224 225 224 221 221 223 221 217 220 219 223 227 224 226 228 230 230 230 229 226 230 224 219 213 210 196 193 195 197 195 204 214 197 197 207 206 214 225 210 224
217 198 269 313 322 282 340 64 357 358 352 290 294 315 347 285 288 322 290 97 9 245 265 287 285 289 307 88 284 277 61 319 323 286 285 277 270 267 264 258 254 257 251 242 233 226 227 228 227 224 216 216 218 221 221 221 221 225 226 225 225 224 230 232 226 224 224 223 234 231 227 218 210 207 205 211 207 217 215 211 214 213 215 225 221 218
314 340 275 284 260 297 60 77 132 316 303 263 288 271 37 108 263 230 301 148 206 196 48 305 300 277 53 46 344 312 328 303 297 287 281 281 275 268 260 256 255 250 254 253 245 239 234 231 228 225 222 216 215 219 220 218 217 223 225 224 224 222 226 224 228 225 224 224 226 231 232 233 229 219 222 223 224 220 220 218 218 214 219 225 224 217
192 251 282 259 273 109 146 147 161 118 198 195 196 195 191 214 200 260 270 2 277 141 222 169 229 252 128 133 160 287 297 296 271 255 274 289 290 278 271 269 262 257 256 256 254 249 244 236 230 228 228 224 221 218 217 217 217 220 221 222 220 224 226 222 222 223 223 228 231 232 233 234 237 234 232 233 232 233 228 222 218 213 220 225 225 226
267 143 231 296 299 212 142 149 173 57 278 250 237 181 212 95 62 85 84 124 271 208 201 192 260 261 116 151 148 200 233 249 245 227 231 271 291 293 293 285 271 265 265 259 253 250 247 238 232 230 228 224 222 221 218 215 216 216 219 216 218 224 223 221 217 217 221 225 231 231 229 234 233 234 234 234 237 235 234 230 225 217 221 223 228 231
238 228 222 320 335 333 338 329 329 303 222 180 222 183 191 198 156 163 244 166 243 182 180 224 248 261 221 144 160 177 199 280 292 230 208 224 267 290 297 294 290 279 269 266 261 255 248 245 241 235 229 227 225 222 222 220 217 219 219 218 215 219 217 218 213 215 218 219 225 230 229 231 232 235 236 235 235 235 233 230 229 227 226 225 242 250
217 16 241 229 251 266 268 292 97 345 293 259 238 188 200 211 211 229 261 238 233 201 217 229 235 278 286 281 282 284 283 283 291 300 298 292 283 268 270 279 282 282 281 277 270 266 263 253 245 243 240 232 228 223 225 225 223 220 218 222 217 215 217 214 208 213 215 217 219 226 227 229 231 234 237 235 234 231 225 223 222 220 224 216 229 242
95 267 223 224 244 249 264 279 315 42 279 274 269 263 220 197 200 209 209 236 155 229 263 253 238 248 262 277 287 292 296 295 289 298 302 299 300 302 297 293 288 283 278 271 265 261 257 258 256 248 242 239 235 231 229 229 231 229 224 225 221 214 211 209 210 215 215 216 219 221 226 227 230 231 234 237 234 232 231 226 221 220 221 208 218 227
249 254 344 172 247 251 274 280 286 285 262 265 263 261 251 223 199 207 229 231 218 219 249 265 99 266 274 281 284 287 287 297 303 300 291 289 289 286 285 284 284 281 283 284 280 267 257 258 255 251 246 241 238 235 233 231 231 230 232 234 231 217 216 213 211 219 216 217 221 221 222 225 227 227 232 233 233 233 232 228 228 226 221 216 222 228
242 247 241 284 283 278 273 274 276 266 273 271 259 253 242 234 226 221 235 233 226 239 251 266 277 277 278 278 280 279 287 297 298 300 293 281 275 281 284 281 279 282 280 278 284 287 276 266 263 258 254 248 240 239 236 231 229 227 227 232 228 224 225 206 216 221 219 219 222 220 220 222 222 225 229 229 228 226 224 225 225 225 227 227 230 231
183 291 96 244 288 278 273 261 276 266 282 280 270 249 239 228 234 231 237 246 246 257 257 260 266 273 272 264 264 275 289 294 289 277 278 286 285 286 290 286 283 282 282 280 273 280 282 276 269 268 260 253 243 236 235 233 231 226 228 232 226 224 222 208 220 222 221 225 224 221 220 219 224 224 226 226 226 226 224 227 225 226 231 233 232 231
202 267 82 58 307 284 91 328 313 298 275 270 277 275 233 220 225 230 219 224 211 229 243 255 261 256 261 268 256 263 270 267 266 278 288 291 292 286 283 287 293 296 298 298 294 285 281 278 271 262 259 257 252 242 236 235 230 225 231 225 223 226 217 211 220 224 226 230 228 222 221 222 225 225 228 226 226 226 226 226 228 230 232 235 236 232
202 226 215 20 297 274 65 4 322 307 292 276 250 262 195 190 204 222 231 220 208 213 227 218 235 238 250 317 313 292 262 252 253 259 277 285 282 276 264 265 277 282 282 285 288 288 280 269 263 260 260 259 259 252 244 235 232 229 227 220 222 204 202 212 217 221 228 229 225 223 219 221 224 227 228 226 224 223 220 222 227 233 233 233 233 230
185 222 275 143 247 285 9 327 312 310 298 285 58 306 150 166 189 211 230 202 212 187 223 220 251 275 281 277 262 271 284 284 286 295 276 268 280 287 284 265 249 261 269 272 270 269 275 276 266 256 249 254 256 251 258 246 243 246 228 223 217 208 211 209 216 218 226 227 223 220 219 222 223 227 229 228 223 218 219 221 224 228 230 231 228 227
193 198 225 128 257 291 353 312 261 214 240 43 273 221 218 224 188 224 259 260 204 208 230 255 259 263 262 258 259 263 270 278 293 297 290 276 252 252 263 272 271 259 253 260 267 266 261 266 274 275 268 254 249 252 249 245 237 258 263 238 226 218 212 211 218 221 225 225 223 219 222 222 223 226 230 228 222 217 220 221 226 228 227 222 224 225
187 181 166 225 252 269 258 214 313 247 12 311 298 20 160 213 239 245 272 250 234 211 217 229 246 252 262 266 264 261 263 284 303 282 262 266 257 242 247 251 257 255 254 252 254 264 269 266 267 271 274 281 273 253 229 243 225 223 241 242 246 238 221 218 220 228 224 225 226 223 223 220 221 224 226 227 220 217 221 219 221 224 220 217 222 225
191 142 189 268 166 261 260 242 243 305 311 293 244 132 161 166 156 74 311 289 195 209 203 222 239 251 262 265 258 267 17 293 279 277 265 250 249 235 230 245 252 260 258 257 253 261 267 271 269 268 272 276 270 263 255 243 220 234 241 233 227 230 238 231 231 229 222 225 229 226 223 217 218 222 223 221 219 220 222 221 222 224 213 212 218 223
193 190 175 196 250 202 277 299 305 283 291 321 92 32 325 330 82 106 341 295 241 203 187 208 229 243 253 262 268 107 106 280 271 258 230 245 224 236 234 241 256 261 258 258 266 265 262 262 263 263 252 268 269 261 258 257 238 239 244 241 231 222 231 227 233 235 231 230 229 226 222 219 218 227 231 224 224 226 226 227 229 225 199 211 220 222
351 24 246 216 250 263 218 241 255 285 264 101 172 178 121 82 191 236 290 284 322 159 182 201 216 230 236 239 213 120 211 274 284 296 261 218 242 237 245 249 245 247 248 246 250 260 261 259 260 272 267 254 262 263 247 239 239 238 245 244 239 229 233 228 229 232 229 230 230 232 237 233 227 228 231 231 231 228 230 226 222 209 191 213 217 225
156 185 179 218 232 231 248 250 254 211 269 106 131 160 151 188 215 315 312 296 141 170 188 188 208 220 224 229 164 190 244 282 288 300 296 228 250 259 256 270 278 278 275 265 243 235 254 268 274 266 255 248 249 253 260 228 234 239 246 250 241 240 238 236 233 233 232 237 243 243 235 226 222 225 226 231 234 229 229 223 203 195 200 197 197 197
163 192 201 215 220 235 225 258 277 272 253 245 200 136 159 191 201 289 233 278 162 150 175 184 215 218 217 201 165 233 212 237 273 281 291 266 261 261 250 242 249 260 272 277 274 278 258 249 242 254 261 260 261 261 244 220 238 246 242 244 249 247 242 240 240 242 245 248 249 246 239 234 227 229 228 228 233 231 214 205 202 173 172 174 175 189
170 164 219 204 231 223 224 233 249 270 266 246 189 152 147 110 244 232 248 357 138 186 192 196 217 220 214 214 213 228 253 255 263 277 284 271 261 265 273 276 279 275 259 248 257 264 264 256 249 254 258 253 253 254 239 228 238 247 249 247 247 245 245 247 248 251 252 249 247 246 243 237 234 229 234 229 216 211 187 146 139 142 149 161 181 207
176 160 193 195 207 208 196 247 298 280 360 118 118 99 182 209 235 165 112 249 22 245 171 220 226 244 202 244 233 245 257 260 265 268 264 265 267 268 269 274 272 271 276 280 278 253 243 262 262 252 250 255 254 244 226 218 238 247 247 249 249 247 248 251 251 249 248 247 246 242 240 241 227 221 217 204 182 186 157 136 138 141 150 167 191 220
139 241 236 199 181 199 172 174 221 214 95 156 143 180 186 215 236 183 264 289 242 211 255 274 235 228 238 248 261 261 255 261 263 262 262 260 261 262 262 259 258 261 265 263 257 265 267 265 261 264 263 256 248 242 227 210 235 244 248 253 253 249 253 252 248 243 242 238 240 245 243 232 225 206 177 155 156 158 145 148 150 156 171 179 204 227
166 209 184 258 176 202 206 225 236 200 157 204 218 244 245 224 248 258 265 270 286 276 273 270 276 273 254 249 253 261 271 256 260 261 266 267 266 268 269 264 263 265 264 267 267 270 262 256 266 272 275 267 246 238 227 218 231 248 250 253 250 252 251 242 231 226 234 236 236 232 229 182 176 144 139 142 152 154 157 154 157 174 177 185 215 231
150 202 236 276 247 240 253 257 268 269 255 226 237 254 269 265 260 255 258 273 261 260 265 265 273 273 273 267 275 258 259 262 263 264 260 261 261 262 261 264 264 261 260 261 264 262 260 256 256 260 269 275 256 239 229 221 218 236 244 250 247 245 242 238 233 233 233 234 230 200 139 134 117 120 128 142 152 151 155 153 165 182 186 197 224 236
238 233 232 242 215 60 267 231 230 247 254 256 254 248 245 246 254 258 264 256 260 269 268 258 262 260 258 264 260 263 267 265 266 266 265 268 261 262 262 264 266 262 264 266 262 267 265 255 254 255 252 268 267 245 232 227 219 227 243 250 249 231 215 226 222 229 230 217 196 151 156 161 165 155 149 145 137 132 129 138 152 167 204 221 235 242
262 189 228 237 233 223 246 263 263 249 256 270 255 267 263 256 254 257 255 259 260 261 264 265 263 260 248 251 246 253 260 260 263 264 260 260 258 266 264 261 265 267 263 253 262 264 260 258 252 263 265 262 261 251 243 231 226 225 234 244 241 226 212 212 206 217 217 194 177 177 172 177 157 156 156 156 151 149 143 145 164 196 218 225 237 250
208 97 235 149 214 248 266 269 262 268 259 250 254 250 253 257 260 262 261 258 253 257 255 253 237 252 250 251 254 257 262 258 253 257 260 261 261 261 258 257 259 257 269 273 267 253 244 254 257 254 258 259 260 262 268 261 249 239 224 228 212 191 197 219 207 211 186 169 169 170 166 163 155 167 145 135 135 121 141 171 187 206 240 234 229 235
231 244 231 214 264 252 239 252 264 298 276 191 226 243 251 257 258 264 268 263 262 261 263 263 260 245 247 246 253 253 255 260 253 254 256 255 254 258 260 260 262 267 267 263 262 259 255 247 245 253 256 260 262 264 264 267 265 244 215 219 193 178 201 212 183 180 184 174 174 156 153 152 144 126 130 139 152 150 158 183 216 231 230 249 231 238
222 235 182 221 226 239 237 249 261 257 269 259 275 275 266 254 250 264 263 269 274 267 265 271 273 276 272 263 242 235 245 248 255 250 254 256 253 249 250 255 257 261 263 265 263 258 248 252 249 246 252 256 259 260 259 263 265 256 196 184 184 187 200 178 186 187 171 167 175 163 158 146 142 139 136 130 134 159 214 252 215 229 244 253 260 266